Вернуться в каталог

COSMOS 1579 COOLANT

LostUNKNOWN
NORAD 27572·DEBRIS·🇷🇺 Russia

Запущен Jun 29, 1984 с Baikonur Cosmodrome

Loading…

Ближайшие Пролёты (ближайшие 24 часа)

TLE

УстаревшееSource: Space-Track

Эпоха: Jan 23, 2018, 05:42 UTC

1 27572U 84069W   18023.23757616 -.00000024  00000-0  10000-3 0  9992
2 27572 101.2757  36.6114 0693755 353.1882   6.0487 11.29583020812775

Отслеживайте COSMOS 1579 COOLANT в реальном времени с AllMySat

Download on the App Store